| time (UTC) | temp F | wind direction | speed MPH | gust MPH | rain 1hr in | rain 24hr in | rain mn in | humidity % | barometer mb |
| 20260507164041 | 73 | 240 | 3.0 | 6.0 | 0.00 | 0.00 | 0.00 | 52 | 1011.1 |
| 20260507163041 | 73 | 235 | 2.0 | 6.0 | 0.00 | 0.00 | 0.00 | 52 | 1011.0 |
| 20260507162540 | 74 | 236 | 3.0 | 5.0 | 0.00 | 0.00 | 0.00 | 53 | 1011.1 |
| 20260507161540 | 74 | 271 | 4.0 | 7.0 | 0.00 | 0.00 | 0.00 | 51 | 1011.1 |
| 20260507161041 | 74 | 248 | 3.0 | 6.0 | 0.00 | 0.00 | 0.00 | 53 | 1011.1 |
| 20260507160547 | 73 | 266 | 5.0 | 8.0 | 0.00 | 0.00 | 0.00 | 53 | 1011.2 |
| 20260507160040 | 73 | 246 | 3.0 | 5.0 | 0.00 | 0.00 | 0.00 | 54 | 1011.2 |
| 20260507155541 | 73 | 318 | 1.0 | 7.0 | 0.00 | 0.00 | 0.00 | 55 | 1011.2 |
| 20260507154540 | 73 | 314 | 1.0 | 6.0 | 0.00 | 0.00 | 0.00 | 55 | 1011.1 |
| 20260507154041 | 73 | 311 | 2.0 | 7.0 | 0.00 | 0.00 | 0.00 | 54 | 1011.1 |
| 20260507153541 | 73 | 293 | 1.0 | 2.0 | 0.00 | 0.00 | 0.00 | 54 | 1011.2 |
| 20260507153040 | 72 | 298 | 3.0 | 3.0 | 0.00 | 0.00 | 0.00 | 54 | 1011.2 |
| 20260507152541 | 72 | 27 | 0.0 | 1.0 | 0.00 | 0.00 | 0.00 | 54 | 1011.2 |
| 20260507152042 | 72 | 278 | 1.0 | 3.0 | 0.00 | 0.00 | 0.00 | 53 | 1011.2 |
| 20260507151540 | 72 | 291 | 2.0 | 3.0 | 0.00 | 0.00 | 0.00 | 54 | 1011.2 |
| 20260507150040 | 73 | 282 | 4.0 | 9.0 | 0.00 | 0.00 | 0.00 | 54 | 1011.2 |
| 20260507145548 | 72 | 111 | 1.0 | 3.0 | 0.00 | 0.00 | 0.00 | 52 | 1011.2 |
| 20260507145040 | 74 | 216 | 2.0 | 7.0 | 0.00 | 0.00 | 0.00 | 51 | 1011.2 |
| 20260507144540 | 74 | 186 | 4.0 | 8.0 | 0.00 | 0.00 | 0.00 | 51 | 1011.2 |
| 20260507143541 | 73 | 350 | 2.0 | 3.0 | 0.00 | 0.00 | 0.00 | 54 | 1011.2 |
| 20260507142540 | 73 | 260 | 3.0 | 7.0 | 0.00 | 0.00 | 0.00 | 52 | 1011.3 |
| 20260507142041 | 73 | 290 | 2.0 | 3.0 | 0.00 | 0.00 | 0.00 | 52 | 1011.3 |
| 20260507141540 | 74 | 317 | 3.0 | 7.0 | 0.00 | 0.00 | 0.00 | 49 | 1011.3 |
| 20260507141040 | 75 | 306 | 5.0 | 8.0 | 0.00 | 0.00 | 0.00 | 50 | 1011.3 |
| 20260507140540 | 75 | 260 | 7.0 | 9.0 | 0.00 | 0.00 | 0.00 | 51 | 1011.3 |
| 20260507140042 | 75 | 341 | 3.0 | 7.0 | 0.00 | 0.00 | 0.00 | 52 | 1011.3 |
| 20260507135540 | 74 | 290 | 3.0 | 7.0 | 0.00 | 0.00 | 0.00 | 50 | 1011.4 |
| 20260507135042 | 74 | 291 | 9.0 | 13.0 | 0.00 | 0.00 | 0.00 | 49 | 1011.4 |
| 20260507133540 | 74 | 287 | 5.0 | 9.0 | 0.00 | 0.00 | 0.00 | 50 | 1011.4 |
| 20260507132540 | 74 | 301 | 5.0 | 12.0 | 0.00 | 0.00 | 0.00 | 49 | 1011.5 |
| 20260507132040 | 74 | 320 | 7.0 | 12.0 | 0.00 | 0.00 | 0.00 | 48 | 1011.5 |
| 20260507131540 | 74 | 275 | 5.0 | 12.0 | 0.00 | 0.00 | 0.00 | 51 | 1011.5 |
| 20260507131041 | 74 | 277 | 5.0 | 10.0 | 0.00 | 0.00 | 0.00 | 52 | 1011.6 |
| 20260507130542 | 73 | 287 | 7.0 | 12.0 | 0.00 | 0.00 | 0.00 | 53 | 1011.6 |
| 20260507125540 | 73 | 291 | 6.0 | 9.0 | 0.00 | 0.00 | 0.00 | 52 | 1011.6 |
| 20260507125041 | 74 | 294 | 6.0 | 10.0 | 0.00 | 0.00 | 0.00 | 54 | 1011.6 |
| 20260507124540 | 74 | 310 | 6.0 | 10.0 | 0.00 | 0.00 | 0.00 | 52 | 1011.6 |
| 20260507124040 | 73 | 270 | 3.0 | 7.0 | 0.00 | 0.00 | 0.00 | 54 | 1011.7 |
| 20260507123539 | 74 | 292 | 5.0 | 13.0 | 0.00 | 0.00 | 0.00 | 51 | 1011.7 |
| 20260507123043 | 73 | 301 | 7.0 | 12.0 | 0.00 | 0.00 | 0.00 | 52 | 1011.6 |
| 20260507122540 | 73 | 279 | 6.0 | 10.0 | 0.00 | 0.00 | 0.00 | 52 | 1011.6 |
| 20260507122039 | 73 | 275 | 6.0 | 10.0 | 0.00 | 0.00 | 0.00 | 53 | 1011.7 |
| 20260507121539 | 73 | 293 | 9.0 | 12.0 | 0.00 | 0.00 | 0.00 | 53 | 1011.8 |
| 20260507121040 | 73 | 316 | 5.0 | 12.0 | 0.00 | 0.00 | 0.00 | 53 | 1011.7 |
| 20260507120039 | 73 | 268 | 4.0 | 10.0 | 0.00 | 0.00 | 0.00 | 57 | 1011.8 |
| 20260507115540 | 72 | 296 | 6.0 | 12.0 | 0.00 | 0.00 | 0.00 | 56 | 1011.9 |
| 20260507115041 | 72 | 299 | 7.0 | 13.0 | 0.00 | 0.00 | 0.00 | 53 | 1011.9 |
| 20260507114539 | 73 | 268 | 2.0 | 12.0 | 0.00 | 0.00 | 0.00 | 56 | 1011.9 |
| 20260507114039 | 72 | 311 | 3.0 | 7.0 | 0.00 | 0.00 | 0.00 | 56 | 1012.0 |
| 20260507113543 | 71 | 288 | 5.0 | 8.0 | 0.00 | 0.00 | 0.00 | 56 | 1012.0 |
| 20260507113040 | 72 | 262 | 3.0 | 7.0 | 0.00 | 0.00 | 0.00 | 56 | 1012.1 |
| 20260507112539 | 72 | 291 | 3.0 | 6.0 | 0.00 | 0.00 | 0.00 | 59 | 1012.2 |
| 20260507111540 | 71 | 255 | 1.0 | 5.0 | 0.00 | 0.00 | 0.00 | 57 | 1012.3 |
| 20260507111043 | 71 | 229 | 3.0 | 10.0 | 0.00 | 0.00 | 0.00 | 60 | 1012.3 |
| 20260507110539 | 71 | 238 | 5.0 | 10.0 | 0.00 | 0.00 | 0.00 | 61 | 1012.3 |
| 20260507110039 | 71 | 323 | 3.0 | 9.0 | 0.00 | 0.00 | 0.00 | 58 | 1012.4 |
| 20260507105040 | 69 | 252 | 2.0 | 6.0 | 0.00 | 0.00 | 0.00 | 63 | 1012.5 |
| 20260507104040 | 71 | 222 | 5.0 | 10.0 | 0.00 | 0.00 | 0.00 | 60 | 1012.5 |
| 20260507103539 | 70 | 244 | 5.0 | 6.0 | 0.00 | 0.00 | 0.00 | 63 | 1012.6 |
| 20260507103041 | 71 | 266 | 3.0 | 5.0 | 0.00 | 0.00 | 0.00 | 62 | 1012.6 |
| 20260507102540 | 70 | 236 | 5.0 | 9.0 | 0.00 | 0.00 | 0.00 | 60 | 1012.6 |
| 20260507102040 | 71 | 244 | 5.0 | 9.0 | 0.00 | 0.00 | 0.00 | 60 | 1012.6 |
| 20260507101040 | 70 | 221 | 4.0 | 8.0 | 0.00 | 0.00 | 0.00 | 63 | 1012.7 |
| 20260507100539 | 69 | 238 | 3.0 | 5.0 | 0.00 | 0.00 | 0.00 | 65 | 1012.7 |
| 20260507100039 | 70 | 273 | 3.0 | 7.0 | 0.00 | 0.00 | 0.00 | 66 | 1012.8 |
| 20260507095540 | 69 | 226 | 2.0 | 7.0 | 0.00 | 0.00 | 0.00 | 66 | 1012.8 |
| 20260507094539 | 70 | 270 | 3.0 | 9.0 | 0.00 | 0.00 | 0.00 | 66 | 1012.8 |
| 20260507094047 | 69 | 298 | 5.0 | 9.0 | 0.00 | 0.00 | 0.00 | 68 | 1012.8 |
| 20260507093540 | 68 | 295 | 5.0 | 8.0 | 0.00 | 0.00 | 0.00 | 65 | 1012.7 |
| 20260507093039 | 69 | 224 | 5.0 | 9.0 | 0.00 | 0.00 | 0.00 | 68 | 1012.7 |
| 20260507092540 | 68 | 281 | 4.0 | 9.0 | 0.00 | 0.00 | 0.00 | 70 | 1012.6 |
| 20260507092039 | 68 | 295 | 6.0 | 9.0 | 0.00 | 0.00 | 0.00 | 70 | 1012.6 |
| 20260507091546 | 67 | 285 | 6.0 | 12.0 | 0.00 | 0.00 | 0.00 | 71 | 1012.6 |
| 20260507091040 | 67 | 267 | 5.0 | 7.0 | 0.00 | 0.00 | 0.00 | 72 | 1012.7 |
| 20260507090039 | 67 | 274 | 3.0 | 8.0 | 0.00 | 0.00 | 0.00 | 75 | 1012.7 |
| 20260507085540 | 67 | 231 | 7.0 | 12.0 | 0.00 | 0.00 | 0.00 | 73 | 1012.7 |
| 20260507085039 | 66 | 247 | 5.0 | 8.0 | 0.00 | 0.00 | 0.00 | 74 | 1012.7 |
| 20260507084539 | 66 | 249 | 5.0 | 9.0 | 0.00 | 0.00 | 0.00 | 74 | 1012.7 |
| 20260507084039 | 65 | 279 | 3.0 | 12.0 | 0.00 | 0.00 | 0.00 | 75 | 1012.7 |
| 20260507083539 | 65 | 254 | 7.0 | 9.0 | 0.00 | 0.00 | 0.00 | 75 | 1012.7 |
| 20260507083039 | 65 | 248 | 5.0 | 8.0 | 0.00 | 0.00 | 0.00 | 77 | 1012.6 |
| 20260507082539 | 64 | 268 | 5.0 | 7.0 | 0.00 | 0.00 | 0.00 | 76 | 1012.6 |
| 20260507082040 | 64 | 286 | 5.0 | 8.0 | 0.00 | 0.00 | 0.00 | 76 | 1012.6 |
| 20260507081539 | 64 | 235 | 4.0 | 9.0 | 0.00 | 0.00 | 0.00 | 77 | 1012.5 |
| 20260507081041 | 64 | 271 | 5.0 | 7.0 | 0.00 | 0.00 | 0.00 | 77 | 1012.5 |
| 20260507075546 | 63 | 256 | 4.0 | 7.0 | 0.00 | 0.00 | 0.00 | 81 | 1012.6 |
| 20260507075039 | 63 | 261 | 5.0 | 8.0 | 0.00 | 0.00 | 0.00 | 82 | 1012.6 |
| 20260507074539 | 62 | 262 | 5.0 | 7.0 | 0.00 | 0.00 | 0.00 | 82 | 1012.6 |
| 20260507074039 | 62 | 228 | 4.0 | 7.0 | 0.00 | 0.00 | 0.00 | 83 | 1012.5 |
| 20260507073540 | 62 | 264 | 6.0 | 8.0 | 0.00 | 0.00 | 0.00 | 84 | 1012.6 |
| 20260507073039 | 61 | 229 | 3.0 | 8.0 | 0.00 | 0.00 | 0.00 | 84 | 1012.6 |
| 20260507072544 | 61 | 242 | 5.0 | 8.0 | 0.00 | 0.00 | 0.00 | 84 | 1012.5 |
| 20260507071541 | 60 | 250 | 5.0 | 7.0 | 0.00 | 0.00 | 0.00 | 85 | 1012.4 |
| 20260507071040 | 60 | 265 | 5.0 | 9.0 | 0.00 | 0.00 | 0.00 | 85 | 1012.4 |
| 20260507070539 | 60 | 217 | 2.0 | 7.0 | 0.00 | 0.00 | 0.00 | 86 | 1012.3 |
| 20260507070044 | 59 | 248 | 3.0 | 5.0 | 0.00 | 0.00 | 0.00 | 86 | 1012.3 |
| 20260507065541 | 59 | 273 | 3.0 | 5.0 | 0.00 | 0.00 | 0.00 | 88 | 1012.3 |
| 20260507065039 | 58 | 196 | 2.0 | 5.0 | 0.00 | 0.00 | 0.00 | 88 | 1012.2 |
| 20260507064540 | 58 | 238 | 2.0 | 3.0 | 0.00 | 0.00 | 0.00 | 89 | 1012.2 |
| 20260507064039 | 57 | 247 | 2.0 | 3.0 | 0.00 | 0.01 | 0.00 | 89 | 1012.2 |
| 20260507063539 | 57 | 261 | 1.0 | 3.0 | 0.00 | 0.01 | 0.00 | 89 | 1012.1 |
| 20260507063040 | 57 | 232 | 3.0 | 5.0 | 0.00 | 0.01 | 0.00 | 88 | 1012.1 |
| 20260507062039 | 57 | 250 | 2.0 | 5.0 | 0.00 | 0.01 | 0.00 | 89 | 1012.1 |
| 20260507061039 | 56 | 228 | 3.0 | 3.0 | 0.00 | 0.02 | 0.00 | 89 | 1012.0 |
| 20260507060539 | 56 | 244 | 2.0 | 3.0 | 0.00 | 0.02 | 0.00 | 89 | 1011.9 |
| 20260507054538 | 55 | 279 | 3.0 | 3.0 | 0.00 | 0.02 | 0.00 | 89 | 1011.9 |
| 20260507053539 | 55 | 278 | 1.0 | 3.0 | 0.00 | 0.03 | 0.00 | 89 | 1011.8 |
| 20260507052039 | 53 | 311 | 2.0 | 3.0 | 0.00 | 0.05 | 0.00 | 89 | 1011.6 |
| 20260507051538 | 53 | 267 | 0.0 | 2.0 | 0.00 | 0.06 | 0.00 | 90 | 1011.5 |
| 20260507051040 | 53 | 265 | 1.0 | 3.0 | 0.00 | 0.06 | 0.00 | 90 | 1011.4 |
| 20260507050539 | 52 | 271 | 1.0 | 3.0 | 0.00 | 0.06 | 0.00 | 90 | 1011.4 |
| 20260507050038 | 52 | 276 | 1.0 | 2.0 | 0.00 | 0.07 | 0.00 | 91 | 1011.3 |
| 20260507045539 | 52 | 273 | 1.0 | 3.0 | 0.00 | 0.07 | 0.00 | 92 | 1011.2 |
| 20260507045038 | 51 | 245 | 0.0 | 0.0 | 0.00 | 0.08 | 0.00 | 92 | 1011.2 |
| 20260507044540 | 51 | 246 | 0.0 | 0.0 | 0.00 | 0.08 | 0.00 | 92 | 1011.1 |
| 20260507043538 | 50 | 258 | 0.0 | 0.0 | 0.00 | 0.08 | 0.00 | 92 | 1011.0 |
| 20260507043053 | 50 | 258 | 0.0 | 1.0 | 0.00 | 0.08 | 0.00 | 92 | 1011.0 |
| 20260507042538 | 51 | 259 | 0.0 | 1.0 | 0.00 | 0.08 | 0.00 | 92 | 1011.1 |
| 20260507042038 | 51 | 275 | 0.0 | 0.0 | 0.00 | 0.08 | 0.00 | 92 | 1011.1 |
| 20260507041540 | 51 | 273 | 0.0 | 0.0 | 0.00 | 0.09 | 0.00 | 92 | 1011.0 |
| 20260507041039 | 51 | 273 | 0.0 | 2.0 | 0.00 | 0.09 | 0.00 | 92 | 1011.0 |
| 20260507040539 | 51 | 263 | 2.0 | 3.0 | 0.00 | 0.11 | 0.00 | 94 | 1011.0 |
| 20260507040040 | 51 | 249 | 0.0 | 0.0 | 0.00 | 0.11 | 0.00 | 94 | 1011.0 |
| 20260507035542 | 51 | 254 | 1.0 | 2.0 | 0.00 | 0.11 | 0.00 | 95 | 1010.9 |
| 20260507035038 | 51 | 258 | 1.0 | 3.0 | 0.00 | 0.11 | 0.00 | 95 | 1010.9 |
| 20260507034538 | 51 | 228 | 1.0 | 3.0 | 0.00 | 0.11 | 0.00 | 95 | 1010.8 |
| 20260507034038 | 50 | 252 | 1.0 | 2.0 | 0.00 | 0.11 | 0.00 | 95 | 1010.8 |
| 20260507033538 | 50 | 232 | 1.0 | 1.0 | 0.00 | 0.11 | 0.00 | 96 | 1010.8 |
| 20260507033038 | 50 | 231 | 0.0 | 1.0 | 0.00 | 0.11 | 0.00 | 96 | 1010.7 |
| 20260507032538 | 51 | 237 | 1.0 | 3.0 | 0.00 | 0.11 | 0.00 | 96 | 1010.6 |
| 20260507032038 | 50 | 221 | 2.0 | 3.0 | 0.00 | 0.11 | 0.00 | 96 | 1010.6 |
| 20260507031538 | 51 | 84 | 0.0 | 0.0 | 0.00 | 0.11 | 0.00 | 96 | 1010.6 |
| 20260507031038 | 51 | 84 | 0.0 | 0.0 | 0.00 | 0.11 | 0.00 | 96 | 1010.6 |
| 20260507030539 | 51 | 84 | 0.0 | 0.0 | 0.00 | 0.11 | 0.00 | 96 | 1010.7 |
| 20260507030038 | 51 | 84 | 0.0 | 0.0 | 0.00 | 0.11 | 0.00 | 95 | 1010.7 |
| 20260507025538 | 51 | 84 | 0.0 | 0.0 | 0.00 | 0.11 | 0.00 | 96 | 1010.7 |
| 20260507025038 | 51 | 84 | 0.0 | 0.0 | 0.00 | 0.11 | 0.00 | 95 | 1010.6 |
| 20260507024538 | 51 | 84 | 0.0 | 2.0 | 0.00 | 0.11 | 0.00 | 96 | 1010.6 |
| 20260507024045 | 52 | 232 | 0.0 | 0.0 | 0.00 | 0.11 | 0.00 | 96 | 1010.6 |
| 20260507023540 | 52 | 232 | 0.0 | 0.0 | 0.00 | 0.11 | 0.00 | 96 | 1010.6 |
| 20260507023056 | 52 | 232 | 0.0 | 3.0 | 0.00 | 0.11 | 0.00 | 96 | 1010.6 |
| 20260507022545 | 52 | 173 | 0.0 | 2.0 | 0.00 | 0.11 | 0.00 | 96 | 1010.6 |
| 20260507022038 | 52 | 77 | 0.0 | 0.0 | 0.00 | 0.11 | 0.00 | 96 | 1010.6 |
| 20260507021539 | 52 | 77 | 0.0 | 0.0 | 0.00 | 0.11 | 0.00 | 96 | 1010.7 |
| 20260507021038 | 52 | 77 | 0.0 | 0.0 | 0.00 | 0.11 | 0.00 | 96 | 1010.7 |
| 20260507020539 | 52 | 77 | 0.0 | 0.0 | 0.00 | 0.11 | 0.00 | 96 | 1010.7 |
| 20260507020038 | 52 | 77 | 0.0 | 0.0 | 0.00 | 0.11 | 0.00 | 95 | 1010.7 |
| 20260507015543 | 52 | 77 | 0.0 | 0.0 | 0.00 | 0.11 | 0.00 | 95 | 1010.6 |
| 20260507015045 | 52 | 77 | 0.0 | 0.0 | 0.00 | 0.11 | 0.00 | 95 | 1010.6 |
| 20260507014537 | 52 | 77 | 0.0 | 1.0 | 0.00 | 0.11 | 0.00 | 95 | 1010.6 |
| 20260507014039 | 52 | 77 | 0.0 | 2.0 | 0.00 | 0.11 | 0.00 | 95 | 1010.6 |
| 20260507013538 | 52 | 77 | 2.0 | 3.0 | 0.00 | 0.11 | 0.00 | 95 | 1010.6 |
| 20260507013038 | 52 | 77 | 2.0 | 5.0 | 0.00 | 0.11 | 0.00 | 94 | 1010.5 |
| 20260507012538 | 52 | 87 | 2.0 | 5.0 | 0.00 | 0.11 | 0.00 | 94 | 1010.5 |
| 20260507011538 | 52 | 277 | 0.0 | 0.0 | 0.00 | 0.11 | 0.00 | 94 | 1010.5 |
| 20260507011038 | 53 | 277 | 0.0 | 0.0 | 0.00 | 0.11 | 0.00 | 94 | 1010.5 |
| 20260507005538 | 53 | 277 | 1.0 | 2.0 | 0.00 | 0.11 | 0.00 | 93 | 1010.4 |
| 20260507005038 | 54 | 17 | 0.0 | 0.0 | 0.00 | 0.11 | 0.00 | 94 | 1010.5 |
| 20260507004538 | 54 | 17 | 1.0 | 2.0 | 0.00 | 0.11 | 0.00 | 94 | 1010.4 |
| 20260507004040 | 54 | 5 | 0.0 | 0.0 | 0.00 | 0.11 | 0.00 | 94 | 1010.4 |
| 20260507003038 | 54 | 143 | 0.0 | 0.0 | 0.00 | 0.11 | 0.00 | 93 | 1010.3 |
| 20260507002538 | 54 | 143 | 0.0 | 0.0 | 0.00 | 0.11 | 0.00 | 93 | 1010.3 |
| 20260507002038 | 54 | 54 | 0.0 | 0.0 | 0.00 | 0.11 | 0.00 | 93 | 1010.3 |
| 20260507001556 | 54 | 54 | 1.0 | 2.0 | 0.00 | 0.11 | 0.00 | 93 | 1010.3 |
| 20260507001038 | 54 | 54 | 0.0 | 3.0 | 0.00 | 0.11 | 0.00 | 92 | 1010.3 |
| 20260507000538 | 54 | 72 | 1.0 | 3.0 | 0.00 | 0.11 | 0.00 | 91 | 1010.4 |
| 20260507000039 | 54 | 72 | 1.0 | 3.0 | 0.00 | 0.11 | 0.00 | 91 | 1010.4 |
| 20260506235537 | 55 | 88 | 2.0 | 5.0 | 0.00 | 0.11 | 0.00 | 90 | 1010.3 |
| 20260506235039 | 55 | 184 | 0.0 | 3.0 | 0.00 | 0.11 | 0.00 | 90 | 1010.3 |
| 20260506234538 | 56 | 210 | 0.0 | 2.0 | 0.00 | 0.11 | 0.00 | 90 | 1010.3 |
| 20260506234040 | 56 | 210 | 1.0 | 3.0 | 0.00 | 0.11 | 0.00 | 90 | 1010.2 |
| 20260506233038 | 57 | 271 | 1.0 | 3.0 | 0.00 | 0.11 | 0.00 | 90 | 1010.3 |
| 20260506232537 | 57 | 268 | 2.0 | 3.0 | 0.00 | 0.11 | 0.00 | 93 | 1010.3 |
| 20260506232037 | 56 | 325 | 0.0 | 1.0 | 0.00 | 0.11 | 0.00 | 95 | 1010.3 |
| 20260506231537 | 56 | 23 | 3.0 | 8.0 | 0.00 | 0.11 | 0.00 | 96 | 1010.3 |
| 20260506231038 | 57 | 131 | 1.0 | 5.0 | 0.00 | 0.11 | 0.00 | 96 | 1010.3 |
| 20260506230538 | 57 | 89 | 2.0 | 5.0 | 0.00 | 0.11 | 0.00 | 96 | 1010.3 |
| 20260506230038 | 57 | 117 | 1.0 | 3.0 | 0.00 | 0.11 | 0.00 | 96 | 1010.3 |
| 20260506225537 | 57 | 55 | 0.0 | 3.0 | 0.00 | 0.11 | 0.00 | 96 | 1010.2 |
| 20260506225038 | 57 | 34 | 1.0 | 3.0 | 0.00 | 0.11 | 0.00 | 96 | 1010.2 |
| 20260506224037 | 57 | 59 | 2.0 | 3.0 | 0.00 | 0.11 | 0.00 | 96 | 1010.2 |
| 20260506223037 | 57 | 95 | 1.0 | 3.0 | 0.00 | 0.11 | 0.00 | 96 | 1010.3 |
| 20260506222540 | 57 | 95 | 0.0 | 3.0 | 0.00 | 0.11 | 0.00 | 96 | 1010.3 |
| 20260506222044 | 57 | 95 | 1.0 | 5.0 | 0.00 | 0.11 | 0.00 | 96 | 1010.2 |
| 20260506221038 | 57 | 67 | 3.0 | 5.0 | 0.00 | 0.11 | 0.00 | 95 | 1010.2 |
| 20260506220037 | 57 | 101 | 2.0 | 3.0 | 0.00 | 0.11 | 0.11 | 94 | 1010.3 |
| 20260506215537 | 58 | 101 | 0.0 | 3.0 | 0.00 | 0.11 | 0.11 | 94 | 1010.3 |
| 20260506215038 | 58 | 121 | 2.0 | 3.0 | 0.00 | 0.11 | 0.11 | 94 | 1010.3 |
| 20260506214540 | 58 | 217 | 0.0 | 2.0 | 0.00 | 0.11 | 0.11 | 94 | 1010.1 |
| 20260506214054 | 59 | 214 | 0.0 | 1.0 | 0.00 | 0.11 | 0.11 | 94 | 1010.1 |
| 20260506213537 | 59 | 287 | 1.0 | 3.0 | 0.00 | 0.11 | 0.11 | 93 | 1010.2 |
| 20260506213037 | 59 | 285 | 0.0 | 2.0 | 0.00 | 0.11 | 0.11 | 94 | 1010.2 |
| 20260506212540 | 59 | 289 | 0.0 | 2.0 | 0.00 | 0.11 | 0.11 | 95 | 1010.1 |
| 20260506212038 | 58 | 190 | 2.0 | 3.0 | 0.00 | 0.11 | 0.11 | 96 | 1010.2 |
| 20260506211536 | 59 | 355 | 1.0 | 3.0 | 0.00 | 0.11 | 0.11 | 96 | 1010.2 |
| 20260506211037 | 59 | 67 | 2.0 | 3.0 | 0.00 | 0.11 | 0.11 | 96 | 1010.3 |
| 20260506210537 | 59 | 67 | 2.0 | 3.0 | 0.00 | 0.11 | 0.11 | 96 | 1010.2 |
| 20260506210037 | 59 | 67 | 1.0 | 2.0 | 0.00 | 0.11 | 0.11 | 96 | 1010.2 |
| 20260506205548 | 59 | 67 | 1.0 | 2.0 | 0.00 | 0.11 | 0.11 | 96 | 1010.2 |
| 20260506205037 | 59 | 68 | 3.0 | 3.0 | 0.00 | 0.11 | 0.11 | 96 | 1010.2 |
| 20260506204537 | 59 | 204 | 1.0 | 2.0 | 0.00 | 0.11 | 0.11 | 95 | 1010.1 |
| 20260506204040 | 59 | 204 | 0.0 | 1.0 | 0.00 | 0.11 | 0.11 | 95 | 1010.1 |
| 20260506203540 | 60 | 204 | 0.0 | 2.0 | 0.00 | 0.11 | 0.11 | 95 | 1010.0 |
| 20260506203042 | 60 | 204 | 2.0 | 3.0 | 0.00 | 0.11 | 0.11 | 95 | 1010.0 |
| 20260506202537 | 60 | 323 | 1.0 | 2.0 | 0.00 | 0.11 | 0.11 | 95 | 1009.9 |
| 20260506202037 | 60 | 323 | 1.0 | 3.0 | 0.00 | 0.11 | 0.11 | 94 | 1009.9 |
| 20260506201537 | 60 | 276 | 2.0 | 3.0 | 0.00 | 0.11 | 0.11 | 94 | 1009.9 |
| 20260506200037 | 61 | 355 | 2.0 | 3.0 | 0.00 | 0.11 | 0.11 | 94 | 1009.7 |
| 20260506195536 | 61 | 5 | 1.0 | 2.0 | 0.00 | 0.11 | 0.11 | 93 | 1009.7 |
| 20260506195038 | 61 | 79 | 3.0 | 7.0 | 0.00 | 0.11 | 0.11 | 93 | 1009.4 |
| 20260506193537 | 61 | 73 | 2.0 | 5.0 | 0.00 | 0.11 | 0.11 | 93 | 1009.3 |
| 20260506193037 | 61 | 80 | 3.0 | 5.0 | 0.00 | 0.11 | 0.11 | 93 | 1009.2 |
| 20260506190037 | 62 | 86 | 8.0 | 10.0 | 0.00 | 0.11 | 0.11 | 92 | 1008.6 |
| 20260506185539 | 62 | 91 | 9.0 | 12.0 | 0.00 | 0.11 | 0.11 | 92 | 1008.5 |
| 20260506185037 | 62 | 82 | 7.0 | 13.0 | 0.00 | 0.11 | 0.11 | 92 | 1008.5 |
| 20260506184537 | 63 | 109 | 4.0 | 5.0 | 0.00 | 0.11 | 0.11 | 92 | 1008.5 |
| 20260506184053 | 63 | 72 | 3.0 | 3.0 | 0.00 | 0.11 | 0.11 | 91 | 1008.4 |
| 20260506183537 | 63 | 90 | 3.0 | 5.0 | 0.00 | 0.11 | 0.11 | 91 | 1008.3 |
| 20260506183036 | 63 | 69 | 2.0 | 5.0 | 0.00 | 0.11 | 0.11 | 90 | 1008.2 |
| 20260506182537 | 63 | 74 | 1.0 | 6.0 | 0.00 | 0.11 | 0.11 | 90 | 1008.1 |
| 20260506182037 | 63 | 63 | 3.0 | 8.0 | 0.00 | 0.11 | 0.11 | 89 | 1007.9 |
| 20260506181540 | 63 | 90 | 3.0 | 8.0 | 0.00 | 0.11 | 0.11 | 89 | 1007.8 |
| 20260506181037 | 64 | 71 | 5.0 | 7.0 | 0.00 | 0.11 | 0.11 | 89 | 1007.7 |
| 20260506180536 | 64 | 95 | 3.0 | 8.0 | 0.00 | 0.11 | 0.11 | 89 | 1007.7 |
| 20260506180036 | 64 | 85 | 5.0 | 9.0 | 0.00 | 0.11 | 0.11 | 89 | 1007.6 |
| 20260506175537 | 64 | 86 | 8.0 | 13.0 | 0.00 | 0.11 | 0.11 | 89 | 1007.6 |
| 20260506175037 | 65 | 80 | 6.0 | 15.0 | 0.00 | 0.11 | 0.11 | 89 | 1007.6 |
| 20260506174538 | 65 | 65 | 7.0 | 12.0 | 0.00 | 0.11 | 0.11 | 88 | 1007.6 |
| 20260506174038 | 65 | 69 | 6.0 | 9.0 | 0.00 | 0.11 | 0.11 | 87 | 1007.5 |
| 20260506173536 | 65 | 91 | 6.0 | 12.0 | 0.00 | 0.11 | 0.11 | 86 | 1007.4 |
| 20260506173037 | 65 | 75 | 6.0 | 12.0 | 0.00 | 0.11 | 0.11 | 84 | 1007.4 |
| 20260506172537 | 65 | 86 | 5.0 | 9.0 | 0.00 | 0.11 | 0.11 | 82 | 1007.3 |
| 20260506172036 | 66 | 80 | 7.0 | 10.0 | 0.00 | 0.11 | 0.11 | 81 | 1007.3 |
| 20260506171536 | 66 | 76 | 5.0 | 12.0 | 0.00 | 0.11 | 0.11 | 81 | 1007.2 |
| 20260506171036 | 66 | 83 | 6.0 | 9.0 | 0.00 | 0.11 | 0.11 | 80 | 1007.1 |
| 20260506170541 | 66 | 81 | 9.0 | 13.0 | 0.00 | 0.11 | 0.11 | 80 | 1007.1 |
| 20260506170039 | 67 | 83 | 9.0 | 13.0 | 0.00 | 0.11 | 0.11 | 82 | 1007.1 |
| 20260506165038 | 67 | 69 | 6.0 | 12.0 | 0.00 | 0.11 | 0.11 | 85 | 1007.0 |
| 20260506164539 | 67 | 75 | 7.0 | 12.0 | 0.00 | 0.11 | 0.11 | 84 | 1007.0 |